Location: Quedlinburg
(51.7921°N, 11.1414°E)
Time: 07:12:12
(UTC+02:00)

SO-50 - Pass Details

Date: 13 March 2026
Orbit: 567 x 673 km, 64.6° (Epoch: 13 April)

Event Time Altitude Azimuth Distance (km) Brightness Sun altitude
Rises 18:42:36 0° 200° (SSW) 2,924 ? -4.9°
Reaches altitude 10° 18:44:55 10° 194° (SSW) 2,036 ? -5.2°
Maximum altitude 18:49:18 44° 123° (ESE) 917 ? -5.9°
Drops below altitude 10° 18:53:49 10° 52° (NE) 2,098 ? -6.6°
Sets 18:56:15 0° 46° (NE) 3,023 ? -7.0°
